This is the latest recevied weather packets stored in our database for station/object KQ4UPF. If no packets are shown the sender has not sent any weather packets the latest 10 day(s).
| Time | Temp. | Humidity | Pressure | Rain* | Wind** | Luminosity | Snow |
|---|---|---|---|---|---|---|---|
| 1777675689 | 16.67° C | 71% | 1014.2 hPa | 0 mm | - | 69 W/m² | - |
| 1777675387 | 17.22° C | 63% | 1014.2 hPa | 0 mm | - | 85 W/m² | - |
| 1777675083 | 17.22° C | 68% | 1014 hPa | 0 mm | - | 99 W/m² | - |
| 1777674779 | 17.22° C | 68% | 1013.8 hPa | 0 mm | - | 107 W/m² | - |
| 1777674476 | 17.22° C | 66% | 1013.5 hPa | 0 mm | - | 111 W/m² | - |
| 1777674174 | 17.78° C | 67% | 1013.5 hPa | 0 mm | - | 115 W/m² | - |
| 1777673870 | 17.78° C | 65% | 1013.8 hPa | 0 mm | - | 131 W/m² | - |
| 1777673567 | 17.78° C | 64% | 1013.9 hPa | 0 mm | - | 155 W/m² | - |
| 1777673264 | 17.78° C | 60% | 1013.5 hPa | 0 mm | - | 183 W/m² | - |
| 1777672961 | 18.33° C | 63% | 1013.5 hPa | 0 mm | - | 168 W/m² | - |
| 1777672659 | 18.89° C | 61% | 1013.6 hPa | 0 mm | - | 158 W/m² | - |
| 1777672359 | 18.89° C | 58% | 1013.6 hPa | 0 mm | - | 185 W/m² | - |
| 1777672054 | 18.89° C | 47% | 1013.6 hPa | 0 mm | - | 242 W/m² | - |
| 1777671751 | 18.89° C | 50% | 1013.5 hPa | 0 mm | - | 258 W/m² | - |
| 1777671447 | 18.89° C | 52% | 1013.5 hPa | 0 mm | - | 281 W/m² | - |
| 1777671144 | 18.89° C | 52% | 1013.5 hPa | 0 mm | - | 323 W/m² | - |
| 1777670839 | 18.33° C | 52% | 1013.8 hPa | 0 mm | - | 304 W/m² | - |
| 1777670536 | 18.89° C | 49% | 1013.9 hPa | 0 mm | - | 204 W/m² | - |
| 1777670233 | 18.89° C | 51% | 1014 hPa | 0 mm | - | 235 W/m² | - |
| 1777669930 | 18.89° C | 51% | 1014 hPa | 0 mm | - | 261 W/m² | - |
| 1777669628 | 18.89° C | 51% | 1014 hPa | 0 mm | - | 351 W/m² | - |
| 1777669324 | 18.89° C | 60% | 1014.3 hPa | 0 mm | - | 382 W/m² | - |
| 1777669020 | 18.89° C | 50% | 1014.3 hPa | 0 mm | - | 363 W/m² | - |
| 1777668717 | 18.89° C | 54% | 1014.5 hPa | 0 mm | - | 335 W/m² | - |
| 1777668414 | 18.89° C | 56% | 1014.6 hPa | 0 mm | - | 322 W/m² | - |
* Rain latest hour (hover to see other rain measurements)
** Current wind speed in m/s (hover to see current wind gust speed)